sat.trackr.live / text

‹ back to catalog

STARLINK-37108

NORAD 68218 · 2026-053M

PAYLOAD ACTIVE UNKNOWN

§ Identity

Operator
Country
US
Launch date
2026-03-17
Launch site
AFWTR
Launch vehicle
Mass (kg)
RCS (m²)

Purposes: comms

External: N2YO · Heavens-Above · Gunter

§ Orbital elements

Epoch: 2026-09-20T02:44:35.335968Z

Period
93.91 min
Inclination
97.2840°
Eccentricity
0.0004673
Mean motion
15.33447374 rev/d
Perigee alt
462.3 km
Apogee alt
468.7 km
Semi-major
6,843.7 km
B*
3.1628e-4
RAAN
136.8869°
Arg perigee
86.4473°
Mean anomaly
273.7304°
Rev number
3,001

§ Raw data

STARLINK-371081 68218U 26053M   26263.11429787  .00010153  00000+0  31628-3 0  99912 68218  97.2840 136.8869 0004673  86.4473 273.7304 15.33447374 30011

JSON: /api/v1/satellites/68218 · /tle

For live sub-satellite position, see the globe view (requires WebGL).

§ Visibility from observer

Set your observer location to see the next 7 days of passes ≥ 10°. The values pass through the URL so the page stays shareable.

No JS? Fill the form by hand. The geolocation button needs JavaScript.